#timestamp,LO_Frequency,Hit,StdDev 
1654815615.4,286047001.7,N
1654815635.2,286047000.5,N
1654815655.1,286047000.3,N
1654815656.0,286047000.3,N
1654815675.8,286046999.8,N
1654815695.6,286046999.8,N
1654815715.5,286047002.3,N
1654815735.3,286046999.7,N
1654815755.2,286047002.0,N
1654815775.9,286047002.1,N
1654815795.7,286047002.5,N
1654815815.6,286047001.3,N
1654815835.4,286047002.1,N
1654815855.2,286047001.8,N
1654815875.1,286047001.9,N
1654815876.0,286047001.9,N
1654815895.8,286047002.0,N
1654815915.7,286047003.1,Y
1654815935.5,286047000.1,P
1654815955.3,286046999.8,N
1654815975.2,286047000.3,N
1654815995.0,286047001.2,N
1654815995.9,286047001.2,N
1654816015.8,286046998.1,N
1654816035.6,286047000.8,N
1654816055.4,286046998.3,N
1654816075.3,286047000.6,N
1654816095.1,286047000.0,N
1654816115.8,286047000.3,N
1654816135.7,286047002.3,N
1654816155.5,286047002.3,N
1654816175.4,286047000.5,N
1654816195.2,286047002.1,N
1654816215.0,286046999.7,N
1654816215.9,286046999.7,N
1654816235.8,286047000.7,N
1654816255.6,286047000.9,N
1654816275.4,286047000.1,N
1654816295.3,286047002.3,N
1654816315.1,286047002.1,N
1654816335.9,286047002.5,N
1654816355.7,286047002.2,N
1654816375.5,286047002.1,N
1654816395.4,286046999.9,N
1654816415.2,286047002.7,N
1654816435.0,286046999.8,N
1654816435.9,286046999.8,N
1654816455.8,286047002.5,N
1654816475.6,286046999.7,N
1654816495.5,286047002.8,N
1654816515.3,286046999.9,N
1654816535.1,286047002.1,N
1654816555.9,286047002.7,N
1654816575.7,286047000.3,N
1654816595.5,286047004.4,Y
1654816615.4,286047002.2,P
1654816635.2,286047001.4,N
1654816655.1,286047002.4,P
1654816656.0,286047002.4,Y
1654816675.8,286046999.3,P
1654816695.6,286046998.6,N
1654816715.5,286046999.0,N
1654816735.3,286046998.3,N
1654816755.1,286046999.1,N
1654816775.9,286046996.6,Y
1654816795.7,286046996.9,P
1654816815.6,286046999.0,N
1654816835.4,286046999.1,N
1654816855.2,286046999.5,N
1654816875.1,286046996.8,Y
1654816876.0,286046996.8,P
1654816895.8,286046998.5,N
1654816915.7,286047001.1,N
1654816935.5,286047000.4,N
1654816955.3,286046999.8,N
1654816975.2,286047002.7,N
1654816995.0,286047000.9,N
1654816995.9,286047000.9,N
1654817015.8,286047000.7,N
1654817035.6,286047001.1,N
1654817055.4,286047001.0,N
1654817075.3,286047001.1,N
1654817095.1,286047000.9,N
1654817115.8,286047000.8,N
1654817135.7,286047000.6,N
1654817155.5,286047001.1,N
1654817175.4,286047000.7,N
1654817195.2,286047001.1,N
1654817215.0,286047000.8,N
1654817215.9,286047000.8,N
1654817235.8,286047000.9,N
1654817255.6,286046998.2,N
1654817275.4,286047000.5,N
1654817295.3,286047000.5,N
1654817315.1,286047000.0,N
1654817335.9,286047001.1,N
1654817355.7,286046998.2,N
1654817375.5,286047001.1,N
1654817395.4,286047000.3,N
1654817415.2,286047001.1,N
1654817435.0,286047000.4,N
1654817436.0,286047000.4,N
1654817455.8,286047000.4,N
1654817475.6,286047000.5,N
1654817495.5,286047002.6,Y
1654817515.3,286047000.0,P
1654817535.1,286047000.0,N
1654817555.9,286047002.2,P
1654817575.7,286047002.4,N
1654817595.6,286047001.0,N
1654817615.4,286047001.2,N
1654817635.2,286047000.9,N
1654817655.1,286047001.2,N
1654817656.0,286047001.2,N
1654817675.8,286046998.1,N
1654817695.6,286046998.5,N
1654817715.5,286047000.9,N
1654817735.3,286047001.1,N
1654817755.2,286047001.0,N
1654817775.9,286046999.7,N
1654817795.7,286047000.6,N
1654817815.6,286047000.1,N
1654817835.4,286047002.8,N
1654817855.2,286047002.8,N
1654817875.1,286047000.2,N
1654817876.0,286047000.2,N
1654817895.8,286047002.8,N
1654817915.7,286047000.0,N
1654817935.5,286047000.4,N
1654817955.3,286047000.7,N
1654817975.2,286047000.0,N
1654817995.0,286046999.8,N
1654817995.9,286046999.8,N
1654818015.7,286047000.1,N
1654818035.6,286047000.2,N
1654818055.4,286047000.7,N
1654818075.3,286047001.9,N
1654818095.1,286047002.5,N
1654818096.0,286047002.5,N
1654818115.8,286047002.7,N
1654818135.7,286047002.7,N
1654818155.5,286047002.8,N
1654818175.4,286047001.5,N
1654818195.2,286047002.4,N
1654818215.0,286047001.9,N
1654818215.9,286047001.9,N
1654818235.8,286047001.3,N
1654818255.6,286047002.6,N
1654818275.4,286047000.4,N
1654818295.3,286047000.5,N
1654818315.1,286047000.2,N
1654818335.9,286047002.5,N
1654818355.7,286047002.1,N
1654818375.5,286047002.7,N
1654818395.4,286047000.2,N
1654818415.2,286046998.1,N
1654818435.0,286046999.3,N
1654818435.9,286046999.3,N
1654818455.8,286046997.4,N
1654818475.6,286046995.6,Y
1654818495.5,286046995.6,P
1654818515.3,286046996.0,N
1654818535.1,286046996.1,N
1654818555.9,286046995.2,N
1654818575.7,286046995.4,N
1654818595.6,286046993.6,Y
1654818615.4,286046999.6,P
1654818635.2,286046999.6,N
1654818655.1,286046998.9,N
1654818656.0,286046998.9,N
1654818675.8,286046998.8,N
1654818695.7,286046999.0,N
1654818715.5,286046998.6,N
1654818735.3,286046998.2,N
1654818755.2,286046999.0,N
1654818775.0,286046998.9,N
1654818775.9,286046998.9,N
1654818795.8,286046999.2,N
1654818815.6,286046998.7,N
1654818835.4,286046998.9,N
1654818855.3,286046996.5,Y
1654818875.1,286046996.8,P
1654818895.9,286046997.5,N
1654818915.7,286046997.9,N
1654818935.5,286046996.5,Y
1654818955.4,286047000.7,P
1654818975.2,286047000.9,N
1654818995.0,286047001.2,N
1654818995.9,286047001.2,N
1654819015.8,286046998.8,N
1654819035.6,286046996.6,N
1654819055.5,286046996.8,N
1654819075.3,286046996.9,N
1654819095.1,286046996.8,N
1654819115.9,286046998.8,N
1654819135.7,286046999.3,N
1654819155.5,286046999.3,N
1654819175.4,286046998.9,N
1654819195.2,286046999.6,N
